TA3ONK-13 Weather Reports


time (UTC)temp
C
wind
direction
speed
KPH
gust
KPH
rain 1hr
cm
rain 24hr
cm
rain mn
cm
humidity
%
barometer
mb
20260508062803 28 0 0.0 0.0 0.00 0.00 0.00 39 1018.0
20260508061303 27 0 0.0 0.0 0.00 0.00 0.00 40 1018.1
20260508055804 28 0 0.0 0.0 0.00 0.00 0.00 36 1018.1
20260508052804 28 0 0.0 0.0 0.00 0.00 0.00 37 1018.1
20260508051305 28 0 0.0 0.0 0.00 0.00 0.00 36 1018.0
20260508045804 27 0 0.0 0.0 0.00 0.00 0.00 37 1017.9
20260508044305 27 0 0.0 0.0 0.00 0.00 0.00 38 1017.8
20260508042804 25 0 0.0 0.0 0.00 0.00 0.00 40 1017.9
20260508041304 28 0 0.0 0.0 0.00 0.00 0.00 34 1017.7
20260508035805 28 0 0.0 0.0 0.00 0.00 0.00 35 1017.7
20260508034303 28 0 0.0 0.0 0.00 0.00 0.00 36 1017.6
20260508032805 28 0 0.0 0.0 0.00 0.00 0.00 34 1017.4
20260508031304 28 0 0.0 0.0 0.00 0.00 0.00 34 1017.4
20260508025804 28 0 0.0 0.0 0.00 0.00 0.00 34 1017.6
20260508024304 30 0 0.0 0.0 0.00 0.00 0.00 34 1017.7
20260508022805 30 0 0.0 0.0 0.00 0.00 0.00 34 1017.7
20260508021304 30 0 0.0 0.0 0.00 0.00 0.00 34 1017.7
20260508015804 30 0 0.0 0.0 0.00 0.00 0.00 33 1017.8
20260508014305 30 0 0.0 0.0 0.00 0.00 0.00 33 1017.9
20260508012804 30 0 0.0 0.0 0.00 0.00 0.00 33 1017.8
20260508011304 28 0 0.0 0.0 0.00 0.00 0.00 33 1017.7
20260508005805 29 0 0.0 0.0 0.00 0.00 0.00 33 1017.8
20260508004305 30 0 0.0 0.0 0.00 0.00 0.00 35 1017.9
20260508002804 30 0 0.0 0.0 0.00 0.00 0.00 35 1018.0
20260508001305 30 0 0.0 0.0 0.00 0.00 0.00 35 1018.1
20260507235804 30 0 0.0 0.0 0.00 0.00 0.00 35 1018.1
20260507234305 30 0 0.0 0.0 0.00 0.00 0.00 34 1018.1
20260507232804 28 0 0.0 0.0 0.00 0.00 0.00 38 1018.3
20260507231302 28 0 0.0 0.0 0.00 0.00 0.00 38 1018.4
20260507225805 29 0 0.0 0.0 0.00 0.00 0.00 36 1018.5
20260507224304 31 0 0.0 0.0 0.00 0.00 0.00 35 1018.3
20260507222803 31 0 0.0 0.0 0.00 0.00 0.00 35 1018.4
20260507221304 30 0 0.0 0.0 0.00 0.00 0.00 35 1018.5
20260507215805 28 0 0.0 0.0 0.00 0.00 0.00 39 1018.6
20260507214305 30 0 0.0 0.0 0.00 0.00 0.00 35 1018.6
20260507212804 29 0 0.0 0.0 0.00 0.00 0.00 38 1018.7
20260507211305 29 0 0.0 0.0 0.00 0.00 0.00 38 1018.6
20260507205805 31 0 0.0 0.0 0.00 0.00 0.00 36 1018.7
20260507204304 30 0 0.0 0.0 0.00 0.00 0.00 38 1018.8
20260507202803 30 0 0.0 0.0 0.00 0.00 0.00 38 1019.0
20260507201304 30 0 0.0 0.0 0.00 0.00 0.00 38 1018.9
20260507195804 29 0 0.0 0.0 0.00 0.00 0.00 40 1019.2
20260507194304 29 0 0.0 0.0 0.00 0.00 0.00 40 1019.2
20260507192805 28 0 0.0 0.0 0.00 0.00 0.00 42 1019.3
20260507191304 28 0 0.0 0.0 0.00 0.00 0.00 41 1019.2
20260507185805 28 0 0.0 0.0 0.00 0.00 0.00 41 1019.1
20260507184303 28 0 0.0 0.0 0.00 0.00 0.00 41 1019.0
20260507182804 26 0 0.0 0.0 0.00 0.00 0.00 44 1018.8
20260507181304 28 0 0.0 0.0 0.00 0.00 0.00 38 1018.8
20260507175804 30 0 0.0 0.0 0.00 0.00 0.00 36 1018.6
20260507174303 30 0 0.0 0.0 0.00 0.00 0.00 35 1018.4
20260507172804 29 0 0.0 0.0 0.00 0.00 0.00 36 1018.3
20260507171305 31 0 0.0 0.0 0.00 0.00 0.00 34 1018.3
20260507165804 30 0 0.0 0.0 0.00 0.00 0.00 35 1018.1
20260507164304 30 0 0.0 0.0 0.00 0.00 0.00 36 1018.0
20260507162804 30 0 0.0 0.0 0.00 0.00 0.00 36 1017.8
20260507161306 30 0 0.0 0.0 0.00 0.00 0.00 36 1017.8
20260507155804 28 0 0.0 0.0 0.00 0.00 0.00 37 1017.7
20260507154306 28 0 0.0 0.0 0.00 0.00 0.00 37 1017.9
20260507152804 28 0 0.0 0.0 0.00 0.00 0.00 37 1018.0
20260507151305 28 0 0.0 0.0 0.00 0.00 0.00 35 1018.2
20260507145804 28 0 0.0 0.0 0.00 0.00 0.00 35 1018.3
20260507144304 32 0 0.0 0.0 0.00 0.00 0.00 31 1018.5
20260507142803 31 0 0.0 0.0 0.00 0.00 0.00 32 1018.5
20260507141305 29 0 0.0 0.0 0.00 0.00 0.00 33 1018.5
20260507135805 30 0 0.0 0.0 0.00 0.00 0.00 32 1018.5
20260507134303 32 0 0.0 0.0 0.00 0.00 0.00 29 1018.6
20260507132804 33 0 0.0 0.0 0.00 0.00 0.00 30 1018.6
20260507131304 32 0 0.0 0.0 0.00 0.00 0.00 31 1018.5
20260507125804 33 0 0.0 0.0 0.00 0.00 0.00 30 1018.5
20260507124305 34 0 0.0 0.0 0.00 0.00 0.00 29 1018.4
20260507122804 33 0 0.0 0.0 0.00 0.00 0.00 28 1018.4
20260507121304 33 0 0.0 0.0 0.00 0.00 0.00 28 1018.6
20260507115804 32 0 0.0 0.0 0.00 0.00 0.00 28 1018.6
20260507114304 31 0 0.0 0.0 0.00 0.00 0.00 30 1018.6
20260507112803 33 0 0.0 0.0 0.00 0.00 0.00 28 1018.5
20260507111304 32 0 0.0 0.0 0.00 0.00 0.00 27 1018.5
20260507105805 32 0 0.0 0.0 0.00 0.00 0.00 25 1018.4
20260507104304 31 0 0.0 0.0 0.00 0.00 0.00 26 1018.4
20260507102805 30 0 0.0 0.0 0.00 0.00 0.00 27 1018.4
20260507101305 32 0 0.0 0.0 0.00 0.00 0.00 26 1018.3
20260507095805 31 0 0.0 0.0 0.00 0.00 0.00 27 1018.3
20260507094304 31 0 0.0 0.0 0.00 0.00 0.00 26 1018.2
20260507092805 31 0 0.0 0.0 0.00 0.00 0.00 26 1018.3
20260507091304 31 0 0.0 0.0 0.00 0.00 0.00 27 1018.3
20260507085804 31 0 0.0 0.0 0.00 0.00 0.00 27 1018.5
20260507084305 32 0 0.0 0.0 0.00 0.00 0.00 29 1018.5
20260507082805 31 0 0.0 0.0 0.00 0.00 0.00 29 1018.6
20260507081305 31 0 0.0 0.0 0.00 0.00 0.00 31 1018.6
20260507075804 32 0 0.0 0.0 0.00 0.00 0.00 29 1018.5
20260507074303 31 0 0.0 0.0 0.00 0.00 0.00 32 1018.5
20260507072805 30 0 0.0 0.0 0.00 0.00 0.00 35 1018.5
20260507071303 29 0 0.0 0.0 0.00 0.00 0.00 37 1018.7
20260507065804 25 0 0.0 0.0 0.00 0.00 0.00 43 1018.7
20260507064305 25 0 0.0 0.0 0.00 0.00 0.00 43 1018.7